Flag for Brazil Weather past 2 weeks in Rio Branco, Acre, Brazil

Now
75 °F

Scattered showers. Broken clouds.


Feels Like: 75 °F
Forecast: N/A
Wind: 1 mph from Southwest

Location: Rio Branco Airport


UV Index: N/A

Visibility: N/A


Pressure: N/A

Humidity: 89%

Dew point: 72 °F

Location of Rio BrancoLocation

Historic Weather in Rio Branco

°F

Rio Branco temperature yesterday

Maximum temperature yesterday: 88 °F (at 11:00 AM)
Minimum temperature yesterday: 37 °F (at 5:00 PM)
Average temperature yesterday: 75 °F

Past Weeks' High & Low Weather Summary

 TemperatureHumidityPressure
High93 °F (Apr 6, 2:00 PM)100% (Apr 8, 2:00 AM)30.01 "Hg (Apr 8, 2:00 AM)
Low37 °F (Apr 19, 5:00 PM)47% (Apr 6, 2:00 PM)29.74 "Hg (Apr 12, 3:00 PM)
Average77 °F82%29.88 "Hg
* Reported Apr 5 4:00 PM — Apr 20 4:00 PM, Rio Branco, Weather by CustomWeather, © 2014

Note: Actual official high and low records may vary slightly from our data, if they occured in-between our weather recording intervals... More about our weather records

Advertising

Historic Weather Conditions — Data for Previous 24 hours

 ConditionsComfort  
Time TempWeatherWind HumidityBarometerVisibility
4:00 PM
Apr 20
75 °FBroken clouds.5 mph89%29.83 "HgN/A
3:00 PM75 °FLight rain. Fog.8 mph89%29.83 "Hg3 mi
2:00 PM86 °FScattered clouds.7 mph62%29.83 "HgN/A
1:00 PM79 °FRain. Scattered clouds.5 mphN/AN/A3 mi
12:00 PM86 °FLight rain. Scattered clouds.1 mph70%N/AN/A
11:00 AM88 °FPartly sunny.2 mph62%29.95 "HgN/A
10:00 AM86 °FScattered clouds.2 mph62%29.98 "HgN/A
9:00 AM84 °FScattered clouds.5 mph70%29.95 "HgN/A
8:00 AM81 °FSunny.2 mph79%29.95 "Hg10 mi
7:00 AM82 °FSunny.No wind70%29.95 "Hg10 mi
6:00 AM73 °FClear.No wind94%29.92 "Hg10 mi
5:00 AM73 °FClear.2 mph94%29.92 "Hg10 mi
4:00 AM73 °FClear.2 mph94%29.92 "Hg10 mi
3:00 AM72 °FClear.No wind100%29.89 "Hg10 mi
2:00 AM72 °FClear.2 mph94%29.92 "Hg10 mi
1:00 AM72 °FClear.1 mph100%29.89 "Hg10 mi
12:00 AM72 °FClear.No wind100%29.89 "Hg10 mi
11:00 PM
Apr 19
73 °FClear.No wind94%29.92 "Hg10 mi
10:00 PM73 °FPartly cloudy.2 mph94%29.92 "HgN/A
9:00 PM73 °FPartly cloudy.5 mph94%29.89 "HgN/A
8:00 PM73 °FPartly cloudy.No wind94%29.86 "HgN/A
7:00 PM73 °FPartly cloudy.6 mph94%29.86 "HgN/A
6:00 PM73 °FBroken clouds.2 mph94%29.80 "HgN/A
5:00 PM37 °FThunderstorms. Broken clouds.7 mph100%29.80 "Hg6 mi
Weather by CustomWeather, © 2014

See weather overview